Skip Page Navigation
NASA JPL Caltech
NASA Logo - Jet Propulsion Laboratory + View the NASA Portal
+ Center for Near-Earth Object Studies
JPL Home Earth Solar System Stars & Galaxies Technology
JPL Solar System Dynamics
BODIES ORBITS EPHEMERIDES TOOLS PHYSICAL DATA DISCOVERY FAQ SITE MAP
IMPORTANT: The SSD Announcement email list is now available. Major changes are coming in the near future, including possible hostname and/or URL changes. To be notified of such changes, subscribe to this email list.

Please visit this page for more details.


JPL Small-Body Database Browser
Search: [ help ]  
376816 (2000 YP64)
Classification: Inner Main-belt Asteroid          SPK-ID: 2376816
Ephemeris | Orbit Diagram | Orbital Elements | Mission Design | Physical Parameters | Discovery Circumstances ]

[ show orbit diagram ]
Orbital Elements at Epoch 2459000.5 (2020-May-31.0) TDB
Reference: JPL 12 (heliocentric ecliptic J2000)
 Element Value Uncertainty (1-sigma)   Units 
e .08784582658234322 1.2475e-07  
a 1.917408312419117 1.076e-08 au
q 1.748971994318804 2.3578e-07 au
i 17.19971199760696 9.2265e-06 deg
node 287.6590000399614 2.0717e-05 deg
peri 182.3899587503866 6.8696e-05 deg
M 110.7477277173366 6.2356e-05 deg
tp 2458702.166063187245
(2019-Aug-06.66606319)
0.0001669 TDB
period 969.7735517130542
2.66
8.1629e-06
2.235e-08
d
yr
n .3712206827708168 3.1247e-09 deg/d
Q 2.08584463051943 1.1705e-08 au
  Orbit Determination Parameters
   # obs. used (total)      222  
   data-arc span      6525 days (17.86 yr)  
   first obs. used      2000-12-30  
   last obs. used      2018-11-11  
   planetary ephem.      DE431  
   SB-pert. ephem.      SB431-N16  
   condition code      0  
   norm. resid. RMS      .54993  
   source      ORB  
   producer      Otto Matic  
   solution date      2019-Jul-13 14:22:37  

Additional Information
 Earth MOID = .765797 au 
 Jupiter MOID = 3.03304 au 
 T_jup = 3.869 
[ show covariance matrix ]

Ephemeris | Orbit Diagram | Orbital Elements | Mission Design | Physical Parameters | Discovery Circumstances ]

Physical Parameter Table
Parameter Symbol Value Units Sigma Reference Notes
absolute magnitude H 17.5   n/a MPO402523  

376816 (2000 YP64)          Discovered 2000-Dec-30 by LINEAR at Socorro
Reference: Last Updated: 2013-11-20

Alternate Designations
 2000 YP64 = 2005 XS27 
Ephemeris | Orbit Diagram | Orbital Elements | Mission Design | Physical Parameters | Discovery Circumstances ]
ABOUT SSD CREDITS/AWARDS PRIVACY/COPYRIGHT GLOSSARY LINKS
FirstGov 2020-Feb-20 22:31 UT
(server date/time)  
NASA Home Page
Site Manager:   Ryan S. Park
Webmaster  Alan B. Chamberlin